Flag for Canada Weather past 2 weeks in Yorkton, Saskatchewan, Canada

Now
59 °F

Partly sunny.


Feels Like: 57 °F
Forecast: 54 / 66 °F
Wind: 9 mph from North

Location: Yorkton

Current Time: Aug 22, 2014 at 9:54:30 AM

Latest Report: Aug 22, 2014 at 9:02 AM


Visibility: 9 mi

Pressure: 30.20 "Hg

Humidity: 82%

Dew point: 54 °F

Location of YorktonLocation

Historic Weather in Yorkton — Graph

°F

Yorkton temperature yesterday

Maximum temperature yesterday: 70 °F (at 1:00 PM)
Minimum temperature yesterday: 59 °F (at 6:00 AM)
Average temperature yesterday: 64 °F

Past Weeks' High & Low Weather Summary

 TemperatureHumidityPressure
High88 °F (Aug 14, 4:00 PM)100% (Aug 8, 4:51 AM)30.26 "Hg (Aug 8, 4:51 AM)
Low50 °F (Aug 10, 4:00 AM)37% (Aug 19, 2:00 PM)29.63 "Hg (Aug 20, 12:00 PM)
Average67 °F78%29.95 "Hg
* Reported Aug 7 8:00 AM — Aug 22 8:00 AM, Yorkton, Weather by CustomWeather, © 2014

Note: Actual official high and low records may vary slightly from our data, if they occured in-between our weather recording intervals... More about our weather records

Advertising

Yorkton weather history for previous 24 hours

 ConditionsComfort  
Time TempWeatherWind HumidityBarometerVisibility
8:00 AM
Aug 22
57 °FPassing clouds.10 mph88%30.20 "Hg9 mi
7:00 AM55 °FMostly cloudy.10 mph94%30.19 "Hg9 mi
6:00 AM55 °FCloudy.7 mph88%30.18 "Hg9 mi
5:00 AM55 °FPassing clouds.10 mph88%30.16 "Hg9 mi
4:00 AM55 °FPassing clouds.8 mph94%30.15 "Hg9 mi
3:00 AM55 °FPartly cloudy.5 mph94%30.14 "Hg9 mi
2:00 AM57 °FOvercast.7 mph88%30.11 "Hg9 mi
1:00 AM57 °FOvercast.7 mph94%30.11 "Hg9 mi
12:00 AM59 °FOvercast.8 mph88%30.10 "Hg9 mi
11:00 PM
Aug 21
59 °FOvercast.6 mph88%30.10 "Hg9 mi
10:00 PM59 °FPassing clouds.9 mph82%30.10 "Hg9 mi
9:00 PM61 °FPassing clouds.7 mph77%30.10 "Hg9 mi
8:00 PM61 °FPassing clouds.8 mph77%30.07 "Hg9 mi
7:00 PM63 °FPartly sunny.15 mph73%30.05 "Hg9 mi
6:00 PM64 °FPartly sunny.15 mph73%30.03 "Hg9 mi
5:00 PM66 °FScattered clouds.16 mph64%30.01 "Hg9 mi
4:00 PM68 °FSunny.18 mph64%30.00 "Hg9 mi
3:00 PM70 °FScattered clouds.15 mph60%29.97 "Hg9 mi
2:00 PM70 °FPassing clouds.16 mph60%29.96 "Hg9 mi
1:00 PM70 °FScattered clouds.14 mph60%29.95 "Hg9 mi
12:00 PM68 °FMostly cloudy.12 mph64%29.94 "Hg9 mi
11:59 AM66 °FOvercast.13 mph68%29.94 "Hg9 mi
11:00 AM64 °FOvercast.18 mph73%29.94 "Hg9 mi
10:00 AM63 °FOvercast.12 mph77%29.93 "Hg9 mi
9:00 AM61 °FOvercast.13 mph88%29.92 "Hg9 mi
Weather by CustomWeather, © 2014

See weather overviewHow to use our weather pages